Meacham, OR

6:22 AM PDT on April 22, 2018 (GMT -0700)
Meacham

Weather History for KMEH - June, 2013

Change the Weather History Date:

Saturday, June 29, 2013

  Actual Average Record
Temperature  
Mean Temperature 68 °F -  
Max Temperature 82 °F 70 °F 91 °F (2008)
Min Temperature 55 °F 37 °F 37 °F (1998)
Cooling Degree Days 3    
Growing Degree Days 18 (Base 50)    
Moisture  
Dew Point 57 °F    
Average Humidity 70    
Maximum Humidity 93    
Minimum Humidity 45    
Precipitation  
Precipitation 0.00 in - - ()
Sea Level Pressure  
Sea Level Pressure 30.05 in    
Wind  
Wind Speed 1 mph (West)    
Max Wind Speed 7 mph    
Max Gust Speed -    
Visibility 10 miles    
Events      
Averages and records for this station are not official NWS values.
T = Trace of Precipitation, MM = Missing Value Source: NWS Daily Summary

Daily Weather History Graph

Daily Weather History Graph

Search for Another Location

Airport or City:

Astronomy

Jun. 29, 2013 Rise Set
Actual Time 5:07 AM PDT 8:46 PM PDT
Civil Twilight 4:29 AM PDT 9:24 PM PDT
Nautical Twilight 3:39 AM PDT 10:14 PM PDT
Astronomical Twilight 2:31 AM PDT 11:22 PM PDT
Moon No Moon Rise 12:47 PM PDT (6/29)
Length of Visible Light 16h 54m
Length of Day
15h 38m
Waning Gibbous, 54% of the Moon is Illuminated
Jun 29
Waning Gibbous
Jun 29
Last Quarter
Jul 8
New
Jul 15
First Quarter
Jul 22
Full

Hourly Weather History & Observations

Time (PDT) Temp. Heat Index Dew Point Humidity Pressure Visibility Wind Dir Wind Speed Gust Speed Precip Events Conditions
12:56 AM 60.1 °F - 57.0 °F 90% 30.08 in 10.0 mi Calm Calm - N/A   Clear
1:56 AM 59.0 °F - 55.9 °F 90% 30.07 in 10.0 mi Calm Calm - N/A   Clear
2:56 AM 57.0 °F - 55.0 °F 93% 30.05 in 10.0 mi Calm Calm - N/A   Clear
3:56 AM 57.9 °F - 55.0 °F 90% 30.08 in 10.0 mi Calm Calm - N/A   Scattered Clouds
4:56 AM 57.0 °F - 55.0 °F 93% 30.04 in 10.0 mi Calm Calm - 0.00 in   Clear
5:56 AM 55.9 °F - 54.0 °F 93% 30.04 in 10.0 mi Calm Calm - N/A   Clear
6:56 AM 59.0 °F - 57.0 °F 93% 30.02 in 10.0 mi Calm Calm - N/A   Clear
7:56 AM 66.9 °F - 57.9 °F 73% 30.04 in 10.0 mi Calm Calm - N/A   Clear
8:56 AM 70.0 °F - 57.9 °F 65% 30.06 in 10.0 mi Variable 5.8 mph - N/A   Clear
9:56 AM 71.1 °F - 57.9 °F 63% 30.07 in 10.0 mi West 6.9 mph - N/A   Clear
10:56 AM 73.0 °F - 57.9 °F 59% 30.06 in 10.0 mi Variable 3.5 mph - N/A   Partly Cloudy
11:56 AM 75.9 °F - 59.0 °F 56% 30.05 in 10.0 mi Variable 3.5 mph - N/A   Clear
12:56 PM 77.0 °F - 59.0 °F 54% 30.05 in 10.0 mi Variable 3.5 mph - N/A   Partly Cloudy
1:56 PM 78.1 °F - 57.9 °F 50% 30.05 in 10.0 mi Variable 6.9 mph - N/A   Clear
2:56 PM 80.1 °F 80.4 °F 57.0 °F 45% 30.04 in 10.0 mi Variable 4.6 mph - N/A   Clear
3:56 PM 81.0 °F 81.1 °F 57.9 °F 45% 30.03 in 10.0 mi Calm Calm - N/A   Clear
4:56 PM 80.1 °F 80.7 °F 59.0 °F 48% 30.03 in 10.0 mi Variable 3.5 mph - N/A   Clear
5:56 PM 79.0 °F - 59.0 °F 50% 30.03 in 10.0 mi Calm Calm - N/A   Clear
6:56 PM 78.1 °F - 57.0 °F 48% 30.03 in 10.0 mi Variable 3.5 mph - N/A   Clear
7:56 PM 75.0 °F - 57.9 °F 55% 30.01 in 10.0 mi Calm Calm - N/A   Clear
8:56 PM 69.1 °F - 59.0 °F 70% 30.04 in 10.0 mi Calm Calm - N/A   Clear
9:56 PM 64.9 °F - 59.0 °F 81% 30.06 in 10.0 mi Calm Calm - N/A   Clear
10:56 PM 62.1 °F - 57.9 °F 86% 30.06 in 10.0 mi Calm Calm - N/A   Clear
11:56 PM 60.1 °F - 57.0 °F 90% 30.06 in 10.0 mi Calm Calm - N/A   Clear